Weather History for KSGH - March, 2013

Change the Weather History Date:

Wednesday, March 20, 2013

  Actual Average (KDAY) Record (KDAY)
Temperature  
Mean Temperature 26 °F 42 °F  
Max Temperature 31 °F 51 °F 83 °F (2012)
Min Temperature 20 °F 32 °F 14 °F (1951)
Degree Days  
Heating Degree Days 39 23  
Month to date heating degree days 534  
Since 1 July heating degree days 4809  
Cooling Degree Days 0 0  
Month to date cooling degree days 0  
Year to date cooling degree days 0  
Moisture  
Dew Point 16 °F    
Average Humidity 62    
Maximum Humidity 75    
Minimum Humidity 54    
Precipitation  
Precipitation 0.00 in 0.12 in 1.12 in (1927)
Month to date precipitation 2.01  
Year to date precipitation 6.96  
Snow  
Snow 0.00 in 0.10 in 2.60 in (1996)
Month to date snowfall 2.6  
Since 1 July snowfall 21.9  
Snow Depth -    
Sea Level Pressure  
Sea Level Pressure 30.02 in    
Wind  
Wind Speed 13 mph (West)    
Max Wind Speed 23 mph    
Max Gust Speed 26 mph    
Visibility 8 miles    
Events      
T = Trace of Precipitation, MM = Missing Value Source: NWS Daily Summary

Daily Weather History Graph

Daily Weather History Graph

Search for Another Location

Airport or City:

Trip Planner

Search our weather history database for the weather conditions in past years. The results will help you decide how hot, cold, wet, or windy it might be!

Date:

Astronomy

Mar. 20, 2013 Rise Set
Actual Time 7:38 AM EDT 7:47 PM EDT
Civil Twilight 7:11 AM EDT 8:14 PM EDT
Nautical Twilight 6:39 AM EDT 8:46 PM EDT
Astronomical Twilight 6:07 AM EDT 9:18 PM EDT
Moon 1:22 PM EDT (3/20) 3:16 AM EDT (3/20)
Length of Visible Light 13h 03m
Length of Day
12h 09m
First Quarter, 59% of the Moon is Illuminated
Mar 20
First Quarter
Mar 27
Full
Apr 3
Last Quarter
Apr 10
New
Apr 18
First Quarter

Hourly Weather History & Observations

Time (EDT) Temp. Windchill Dew Point Humidity Pressure Visibility Wind Dir Wind Speed Gust Speed Precip Events Conditions
12:56 AM 29.1 °F 19.4 °F 18.1 °F 64% 30.09 in 9.0 mi West 11.5 mph - N/A   Clear
1:56 AM 29.1 °F 18.9 °F 18.1 °F 64% 30.08 in 9.0 mi West 12.7 mph - N/A   Clear
2:56 AM 28.0 °F 17.0 °F 18.1 °F 66% 30.08 in 9.0 mi West 13.8 mph - N/A   Clear
3:56 AM 28.0 °F 17.5 °F 17.1 °F 63% 30.06 in 9.0 mi West 12.7 mph - N/A   Clear
4:56 AM 27.1 °F 16.9 °F 17.1 °F 66% 30.05 in 9.0 mi West 11.5 mph - N/A   Clear
5:56 AM 25.2 °F 17.3 °F 17.1 °F 71% 30.03 in 9.0 mi West 6.9 mph - N/A   Scattered Clouds
6:56 AM 25.2 °F 17.3 °F 18.1 °F 75% 30.03 in 9.0 mi WSW 6.9 mph - N/A   Overcast
7:56 AM 26.1 °F 16.2 °F 17.1 °F 69% 30.02 in 8.0 mi WSW 10.4 mph - N/A   Clear
8:56 AM 28.0 °F 17.0 °F 19.0 °F 69% 30.04 in 7.0 mi West 13.8 mph - N/A   Mostly Cloudy
9:56 AM 29.1 °F 19.4 °F 18.1 °F 64% 30.03 in 8.0 mi West 11.5 mph - N/A   Overcast
10:56 AM 30.0 °F 18.7 °F 18.1 °F 61% 30.02 in 8.0 mi West 16.1 mph 19.6 mph N/A   Overcast
11:56 AM 30.0 °F 17.5 °F 17.1 °F 59% 30.02 in 8.0 mi WNW 19.6 mph 23.0 mph N/A   Scattered Clouds
12:56 PM 31.1 °F 19.7 °F 18.1 °F 59% 30.01 in 8.0 mi WNW 17.3 mph - N/A   Mostly Cloudy
1:56 PM 29.1 °F 16.7 °F 16.2 °F 58% 30.01 in 8.0 mi WNW 18.4 mph - N/A   Overcast
2:56 PM 30.0 °F 16.6 °F 16.2 °F 56% 30.00 in 7.0 mi WNW 23.0 mph - 0.00 in   Mostly Cloudy
3:56 PM 30.0 °F 18.3 °F 15.1 °F 54% 29.97 in 8.0 mi West 17.3 mph 24.2 mph N/A   Overcast
4:56 PM 30.0 °F 18.7 °F 16.2 °F 56% 29.97 in 7.0 mi West 16.1 mph - N/A   Overcast
5:56 PM 27.1 °F 14.9 °F 14.0 °F 58% 29.98 in 8.0 mi NW 16.1 mph 26.5 mph N/A   Overcast
6:56 PM 25.2 °F 12.4 °F 13.1 °F 60% 30.00 in 8.0 mi WNW 16.1 mph 24.2 mph N/A   Scattered Clouds
7:56 PM 24.1 °F 12.5 °F 12.0 °F 60% 30.02 in 8.0 mi WNW 12.7 mph 21.9 mph 0.00 in   Mostly Cloudy
8:56 PM 22.1 °F 8.0 °F 9.1 °F 58% 30.03 in 9.0 mi WNW 17.3 mph - N/A   Clear
9:56 PM 22.1 °F 9.5 °F 9.1 °F 58% 30.02 in 9.0 mi WNW 13.8 mph - N/A   Partly Cloudy
10:56 PM 21.0 °F 9.3 °F 11.1 °F 66% 30.02 in 9.0 mi WNW 11.5 mph - N/A   Scattered Clouds
11:56 PM 20.1 °F 9.5 °F 10.0 °F 65% 30.01 in 9.0 mi WNW 9.2 mph - N/A   Scattered Clouds